Precipitable_Water
0.44 0.48 0.49 0.47 0.47 0.50 0.56 0.65 0.71 0.89 1.09 1.24 1.25 1.25 1.22 1.31 1.30 1.26 1.25 1.24 1.20 1.19 1.14 1.13 1.12 1.10 1.08 1.05 1.00 0.95 0.85 0.74 0.74 0.73 0.72 0.68 0.65 0.65 0.64 0.64 0.61 0.58 0.56
0.40 0.44 0.48 0.52 0.53 0.51 0.50 0.49 0.53 0.72 0.92 1.06 1.14 1.21 1.15 1.18 1.29 1.35 1.35 1.32 1.27 1.28 1.25 1.17 1.13 1.13 1.09 1.05 1.01 0.97 0.89 0.81 0.79 0.74 0.72 0.63 0.65 0.66 0.66 0.65 0.61 0.58 0.55
0.26 0.29 0.33 0.41 0.49 0.52 0.55 0.58 0.56 0.58 0.77 1.00 1.10 1.19 1.32 1.27 1.23 1.25 1.31 1.33 1.37 1.31 1.28 1.23 1.19 1.14 1.12 1.07 1.03 0.97 0.89 0.81 0.79 0.77 0.71 0.63 0.59 0.62 0.63 0.62 0.60 0.56 0.53
0.29 0.30 0.31 0.33 0.35 0.42 0.50 0.55 0.59 0.61 0.70 0.88 1.00 1.00 1.01 1.07 1.14 1.08 1.19 1.29 1.36 1.32 1.30 1.24 1.20 1.17 1.15 1.09 1.05 0.98 0.90 0.88 0.78 0.78 0.73 0.72 0.66 0.58 0.54 0.58 0.59 0.56 0.52
0.27 0.28 0.31 0.33 0.36 0.39 0.40 0.44 0.51 0.56 0.62 0.70 0.86 0.96 1.03 1.05 1.08 1.08 1.06 1.10 1.24 1.32 1.30 1.26 1.20 1.14 1.10 1.08 1.04 0.99 0.92 0.87 0.80 0.79 0.76 0.71 0.63 0.61 0.58 0.54 0.54 0.54 0.52
0.29 0.32 0.35 0.38 0.39 0.42 0.42 0.42 0.41 0.46 0.56 0.61 0.70 0.77 0.87 1.04 1.04 1.06 1.02 1.03 1.10 1.17 1.22 1.23 1.16 1.09 1.04 1.02 0.99 0.96 0.94 0.86 0.85 0.81 0.74 0.67 0.58 0.57 0.56 0.54 0.53 0.52 0.53
0.33 0.35 0.39 0.42 0.44 0.44 0.46 0.47 0.45 0.45 0.49 0.52 0.60 0.70 0.79 0.87 0.98 1.02 1.02 1.00 1.00 1.05 1.11 1.15 1.10 1.06 1.04 1.00 0.96 0.94 0.88 0.86 0.83 0.78 0.68 0.65 0.60 0.58 0.56 0.53 0.51 0.49 0.51
0.36 0.41 0.44 0.45 0.46 0.47 0.47 0.47 0.48 0.46 0.47 0.49 0.51 0.64 0.75 0.82 0.91 1.00 1.02 1.04 1.00 0.99 1.04 1.09 1.08 1.05 1.02 0.96 0.94 0.91 0.87 0.87 0.81 0.72 0.69 0.64 0.60 0.58 0.56 0.52 0.50 0.46 0.46
0.40 0.45 0.49 0.50 0.47 0.44 0.44 0.43 0.45 0.46 0.52 0.50 0.50 0.59 0.68 0.77 0.80 0.94 1.00 1.02 1.05 1.02 1.02 1.07 1.05 1.05 1.01 0.96 0.90 0.89 0.84 0.78 0.76 0.73 0.70 0.63 0.60 0.59 0.57 0.55 0.53 0.47 0.42
0.49 0.53 0.57 0.56 0.56 0.55 0.52 0.50 0.50 0.51 0.51 0.54 0.60 0.59 0.66 0.79 0.82 0.88 0.93 1.00 1.04 1.03 1.03 1.05 1.04 1.01 0.96 0.90 0.86 0.85 0.80 0.84 0.71 0.70 0.68 0.63 0.59 0.59 0.57 0.55 0.53 0.50 0.45
0.55 0.57 0.60 0.65 0.65 0.60 0.55 0.52 0.51 0.52 0.53 0.58 0.59 0.61 0.64 0.77 0.90 0.90 0.95 1.04 1.02 1.02 1.02 1.04 0.99 0.94 0.88 0.83 0.84 0.83 0.74 0.74 0.69 0.70 0.68 0.62 0.60 0.58 0.57 0.55 0.53 0.49 0.45
0.65 0.69 0.67 0.66 0.70 0.62 0.57 0.56 0.57 0.55 0.58 0.65 0.63 0.64 0.67 0.82 0.97 0.99 0.99 1.03 1.00 1.01 1.00 0.96 0.89 0.88 0.82 0.83 0.82 0.79 0.81 0.65 0.64 0.68 0.64 0.64 0.63 0.60 0.60 0.58 0.52 0.46 0.39
0.64 0.64 0.68 0.65 0.68 0.62 0.61 0.61 0.58 0.60 0.66 0.71 0.73 0.73 0.78 0.89 1.00 1.01 1.02 0.96 0.93 0.95 0.92 0.87 0.84 0.82 0.81 0.78 0.74 0.72 0.71 0.69 0.64 0.67 0.66 0.65 0.64 0.62 0.59 0.52 0.45 0.38 0.32
0.62 0.61 0.67 0.70 0.74 0.68 0.65 0.62 0.59 0.61 0.67 0.77 0.82 0.79 0.82 0.91 0.96 0.96 0.96 0.87 0.89 0.88 0.84 0.84 0.83 0.78 0.87 0.82 0.86 0.74 0.80 0.79 0.79 0.73 0.68 0.66 0.61 0.54 0.49 0.42 0.34 0.32 0.31
0.60 0.63 0.64 0.73 0.73 0.66 0.63 0.61 0.61 0.65 0.71 0.82 0.83 0.79 0.80 0.82 0.81 0.84 0.79 0.79 0.84 0.84 0.86 0.83 0.78 0.81 0.74 0.78 0.82 0.88 0.85 0.76 0.65 0.66 0.64 0.57 0.51 0.46 0.39 0.33 0.32 0.32 0.28
0.60 0.61 0.66 0.67 0.65 0.64 0.63 0.63 0.64 0.66 0.79 0.84 0.81 0.79 0.80 0.91 0.87 0.77 0.82 0.83 0.83 0.84 0.81 0.84 0.80 0.82 0.87 0.83 0.84 0.78 0.68 0.67 0.66 0.56 0.51 0.44 0.36 0.31 0.32 0.33 0.31 0.28 0.25
0.59 0.57 0.59 0.63 0.63 0.61 0.61 0.60 0.63 0.72 0.80 0.79 0.79 0.84 0.86 0.76 0.82 0.82 0.81 0.79 0.78 0.78 0.81 0.82 0.85 0.85 0.87 0.87 0.81 0.74 0.69 0.57 0.50 0.42 0.33 0.29 0.29 0.31 0.29 0.26 0.24 0.24 0.24
0.63 0.61 0.57 0.56 0.57 0.58 0.60 0.67 0.73 0.80 0.80 0.80 0.84 0.86 0.78 0.77 0.79 0.80 0.76 0.81 0.85 0.83 0.82 0.87 0.84 0.78 0.74 0.73 0.71 0.60 0.52 0.40 0.32 0.29 0.29 0.29 0.27 0.24 0.23 0.23 0.23 0.24 0.24
0.62 0.63 0.62 0.60 0.61 0.63 0.66 0.69 0.71 0.75 0.78 0.77 0.74 0.73 0.73 0.74 0.79 0.78 0.81 0.83 0.86 0.85 0.83 0.82 0.79 0.74 0.68 0.61 0.52 0.39 0.33 0.29 0.29 0.30 0.28 0.26 0.22 0.21 0.23 0.22 0.22 0.23 0.22
0.62 0.62 0.64 0.66 0.67 0.67 0.68 0.69 0.68 0.68 0.68 0.70 0.73 0.78 0.83 0.83 0.82 0.80 0.83 0.84 0.83 0.78 0.70 0.66 0.64 0.59 0.46 0.38 0.33 0.32 0.30 0.28 0.25 0.25 0.22 0.20 0.20 0.21 0.22 0.23 0.22 0.18 0.18
0.67 0.67 0.68 0.69 0.72 0.74 0.71 0.72 0.73 0.72 0.79 0.81 0.83 0.84 0.84 0.83 0.84 0.83 0.82 0.76 0.66 0.63 0.61 0.53 0.41 0.33 0.30 0.29 0.31 0.29 0.27 0.25 0.22 0.20 0.17 0.17 0.19 0.23 0.24 0.22 0.20 0.17 0.20
0.74 0.72 0.72 0.73 0.74 0.77 0.73 0.72 0.76 0.79 0.82 0.82 0.82 0.81 0.80 0.81 0.77 0.68 0.64 0.65 0.57 0.44 0.34 0.29 0.28 0.29 0.29 0.28 0.27 0.26 0.23 0.22 0.19 0.17 0.18 0.20 0.23 0.22 0.20 0.17 0.17 0.18 0.19
0.76 0.77 0.77 0.77 0.77 0.78 0.79 0.78 0.78 0.80 0.80 0.77 0.76 0.74 0.70 0.65 0.62 0.60 0.48 0.36 0.31 0.27 0.26 0.28 0.27 0.24 0.23 0.21 0.20 0.20 0.21 0.20 0.19 0.20 0.22 0.23 0.20 0.18 0.16 0.15 0.17 0.18 0.21
0.74 0.76 0.77 0.77 0.77 0.80 0.80 0.80 0.80 0.79 0.74 0.69 0.63 0.62 0.56 0.49 0.40 0.34 0.30 0.27 0.27 0.28 0.27 0.23 0.20 0.19 0.18 0.18 0.19 0.20 0.19 0.20 0.21 0.22 0.20 0.18 0.16 0.15 0.15 0.15 0.18 0.23 0.25
0.74 0.73 0.71 0.71 0.71 0.73 0.73 0.73 0.72 0.66 0.60 0.57 0.50 0.43 0.38 0.34 0.30 0.29 0.29 0.28 0.28 0.25 0.21 0.20 0.18 0.17 0.16 0.17 0.20 0.20 0.20 0.21 0.22 0.19 0.16 0.13 0.12 0.12 0.14 0.18 0.24 0.25 0.26
0.72 0.71 0.70 0.70 0.69 0.67 0.63 0.59 0.55 0.50 0.44 0.40 0.37 0.34 0.32 0.30 0.28 0.28 0.29 0.30 0.26 0.24 0.22 0.21 0.19 0.19 0.19 0.20 0.20 0.20 0.21 0.20 0.18 0.15 0.12 0.11 0.12 0.13 0.19 0.23 0.24 0.25 0.25
Wind_Speed
30 30 30 32 34 38 39 38 36 35 35 35 33 32 31 31 30 30 29 28 27 26 25 24 23 22 21 21 20 19 19 19 19 19 19 19 20 20 20 20 20 21 22
31 32 32 33 33 33 35 39 38 38 37 37 37 36 35 34 33 32 31 30 29 28 27 25 24 23 22 21 20 20 19 20 20 20 20 20 21 20 20 21 22 22 23
33 34 34 35 35 34 34 34 36 38 40 39 37 36 35 34 33 33 33 32 31 30 29 27 26 25 24 23 22 21 21 20 21 21 21 20 20 21 22 23 23 24 25
28 29 29 31 35 36 36 36 36 36 39 39 40 40 39 37 36 36 36 35 34 33 32 30 28 27 26 25 24 23 22 21 21 21 21 22 21 21 22 24 25 26 27
25 27 27 29 31 33 36 38 39 39 39 40 42 42 42 41 39 37 37 36 36 35 34 31 29 29 29 28 27 25 24 23 22 22 22 22 22 23 24 25 26 28 30
26 28 28 26 26 27 29 33 37 41 42 43 44 44 44 41 39 38 37 37 36 36 36 34 32 31 30 29 28 27 26 25 24 24 24 24 24 25 26 27 29 31 32
22 23 25 27 28 28 30 31 33 36 41 44 45 47 46 45 44 42 39 38 38 37 37 36 34 32 31 30 29 28 27 26 25 25 25 26 26 27 28 30 31 33 34
25 27 28 29 30 31 33 34 36 38 40 42 46 48 49 48 46 45 41 40 39 38 38 37 35 33 31 31 30 29 28 27 26 26 27 27 28 29 30 32 33 35 36
26 28 30 31 32 32 33 35 36 38 41 43 44 46 48 49 47 46 43 41 39 38 37 37 35 34 32 31 30 30 29 28 27 27 28 28 30 31 32 34 35 36 38
27 29 32 33 33 34 35 36 36 38 38 41 42 41 43 46 46 45 43 41 39 37 36 36 35 34 32 32 30 30 28 27 28 28 28 30 31 33 34 36 37 38 40
34 37 37 37 35 35 34 34 35 36 37 36 38 40 39 41 42 43 41 40 38 37 36 35 34 33 32 30 30 29 28 28 28 29 30 31 33 34 36 37 40 41 42
40 42 41 37 35 33 32 32 32 33 33 33 34 37 38 38 38 39 39 38 35 34 33 33 31 30 30 29 29 28 27 28 29 29 30 32 35 36 38 40 41 42 43
35 35 31 30 29 27 27 27 26 26 26 28 30 32 34 36 36 35 35 34 32 31 30 30 29 28 28 27 28 26 29 27 28 30 32 35 36 38 39 41 43 43 44
28 27 22 22 21 20 21 22 23 22 21 23 24 27 29 30 33 32 32 31 30 29 28 27 27 26 26 26 25 27 28 28 28 32 34 35 37 39 41 42 42 43 44
24 19 12 13 15 16 16 17 17 16 16 17 18 21 23 24 27 28 29 28 27 26 26 25 24 25 23 23 25 27 29 28 31 32 34 36 38 39 40 41 43 44 45
19 12 6 6 9 10 10 10 9 10 13 15 14 18 19 21 23 23 24 23 23 23 23 22 21 23 21 22 23 23 25 28 31 33 35 37 38 40 41 43 45 46 46
16 8 5 4 5 5 5 4 5 8 9 12 14 16 17 19 20 20 20 20 20 21 20 21 19 18 21 20 21 23 27 29 31 33 35 36 38 40 42 44 45 46 48
14 5 3 3 3 3 2 2 6 8 11 11 12 13 15 17 18 18 18 18 19 18 18 18 17 17 19 20 22 24 27 29 31 33 35 37 39 41 42 44 46 47 49
14 9 5 3 2 1 2 6 8 10 8 10 12 13 15 16 15 16 16 17 16 17 14 14 16 16 17 20 22 25 27 29 31 34 36 38 40 42 44 46 48 50 50
11 10 8 6 5 5 6 7 8 8 9 11 12 13 14 15 13 14 11 11 10 10 10 11 13 16 18 21 23 25 28 31 33 35 37 40 42 44 46 48 50 51 52
10 8 7 7 6 6 7 8 9 9 9 10 12 11 14 12 10 9 8 10 8 8 10 12 14 17 19 22 24 27 29 31 34 37 39 41 44 46 48 50 51 51 50
8 7 8 8 7 7 9 10 10 11 13 15 16 13 11 10 7 6 6 6 7 8 10 12 15 17 20 23 26 28 31 34 37 39 41 44 46 48 50 49 49 48 45
12 11 11 10 10 10 11 12 13 14 13 13 11 9 8 6 5 3 3 4 7 9 12 14 17 20 23 25 28 31 33 36 38 41 44 46 47 48 48 48 45 40 33
9 10 11 12 13 13 14 12 11 10 9 9 7 6 5 3 1 2 4 6 9 12 14 17 19 22 25 27 29 32 35 38 41 43 43 46 47 47 44 40 33 26 21
6 7 8 9 10 10 10 10 9 8 7 7 5 3 2 0 2 4 7 10 12 14 16 19 21 24 27 29 32 34 37 40 41 42 44 45 44 41 35 26 20 17 17
3 5 6 7 8 8 7 7 6 5 5 4 2 1 1 3 6 8 10 12 14 16 19 21 24 26 29 31 34 37 39 41 42 42 43 41 36 27 19 16 16 17 18
Wind_Direction
251 250 249 245 246 245 245 244 244 244 242 242 244 245 246 247 247 246 245 244 246 248 250 251 252 255 259 262 266 270 273 276 278 281 284 282 281 280 281 284 285 287 289
252 250 248 248 247 246 245 245 245 244 244 243 245 247 248 249 248 247 246 243 245 246 247 249 251 253 257 258 263 267 272 276 277 280 282 283 280 279 282 284 286 289 291
253 253 251 249 247 246 246 245 245 244 243 244 244 246 246 247 247 247 247 245 244 245 246 249 252 253 254 256 261 266 269 273 277 278 279 281 280 282 284 284 286 289 292
254 253 252 251 248 248 247 247 246 246 244 244 244 244 245 247 248 248 248 246 245 246 247 250 252 252 253 255 260 265 269 268 278 278 278 280 280 282 285 287 287 290 292
256 256 256 255 253 252 251 250 248 247 246 245 245 245 246 247 247 249 247 246 247 247 247 249 251 252 254 255 258 263 267 269 274 277 279 279 280 282 285 288 291 291 293
264 259 258 256 254 254 253 252 252 250 248 247 246 246 246 245 245 244 245 246 246 247 247 249 251 253 254 254 256 262 264 267 270 274 278 278 280 283 285 288 291 292 295
266 261 257 256 257 257 257 256 257 255 251 249 248 246 245 244 243 242 243 244 246 247 247 249 250 253 254 253 256 260 262 265 270 272 277 279 280 284 286 289 292 294 296
273 271 265 261 261 262 262 262 261 260 257 253 249 247 245 244 244 242 242 243 246 248 247 247 249 250 252 253 255 258 262 262 267 274 275 279 282 285 288 290 293 295 296
278 273 270 267 265 265 264 264 264 263 259 255 250 246 244 242 242 241 240 242 245 247 245 245 246 248 251 252 254 256 262 264 267 273 276 279 282 286 288 291 293 295 297
285 280 276 270 266 266 267 267 267 265 263 256 248 245 242 241 239 238 237 239 242 243 243 243 244 247 249 251 252 257 257 257 269 275 277 281 284 287 289 290 293 294 295
285 282 278 269 266 267 268 269 269 267 262 255 247 243 241 237 235 234 234 236 239 240 241 241 242 244 247 248 250 254 258 260 270 275 278 282 286 288 290 292 293 294 295
291 286 278 267 263 265 268 270 271 267 260 254 247 241 238 232 230 229 231 233 236 237 237 237 239 242 244 247 251 254 254 264 273 273 281 284 287 289 291 292 293 294 295
299 291 275 265 260 263 266 270 271 268 261 252 244 237 230 226 225 227 227 228 230 231 232 233 236 239 243 245 249 252 261 266 273 276 284 290 288 290 292 293 294 295 295
312 300 273 257 257 264 270 271 273 268 258 246 235 227 220 219 219 220 220 223 225 226 229 230 234 240 237 251 245 265 261 270 276 280 286 291 291 291 293 294 295 296 297
322 318 287 253 257 267 276 277 270 257 245 229 219 211 209 210 208 211 215 217 219 223 223 228 234 231 243 251 257 267 267 270 281 284 289 292 293 294 295 296 297 297 298
327 328 315 265 268 275 280 275 249 238 222 205 203 199 198 199 201 202 205 210 214 217 223 226 232 238 243 259 266 263 274 280 284 288 291 293 295 296 297 297 298 299 300
333 312 309 291 291 282 280 252 222 198 190 189 189 188 191 190 193 196 199 204 208 213 218 229 233 241 252 263 272 268 280 286 289 292 294 296 298 299 299 300 300 300 300
356 336 308 297 300 283 275 197 170 162 157 165 178 180 181 183 187 192 196 202 205 212 223 231 240 253 261 268 276 282 287 291 294 296 298 299 301 302 302 302 302 302 302
18 34 42 38 44 104 130 139 145 154 163 164 169 171 172 176 184 186 192 194 212 215 228 236 250 261 267 275 283 287 291 295 297 299 300 302 303 304 304 304 304 304 304
25 38 49 63 75 91 116 131 147 152 151 155 159 165 167 164 170 178 194 200 208 216 232 255 263 269 281 285 290 292 295 298 301 302 304 305 306 306 306 306 306 305 306
29 39 52 63 75 89 109 119 125 131 138 143 146 141 147 154 165 180 201 206 215 241 256 272 279 284 289 292 295 299 300 302 304 305 306 307 308 308 308 307 307 307 307
38 53 60 68 74 79 109 114 110 107 121 124 125 134 137 140 153 164 191 220 245 267 277 283 289 293 296 300 302 304 305 306 307 308 308 309 309 310 310 309 309 309 308
56 67 72 80 87 92 112 120 113 118 120 119 126 125 126 143 160 182 232 262 275 284 291 294 297 299 302 304 306 307 308 309 310 310 311 312 312 312 312 311 311 311 310
66 74 80 84 90 98 107 119 116 119 124 129 125 130 128 135 174 274 288 291 295 298 300 302 303 305 307 308 309 309 311 312 313 313 313 314 314 313 313 313 313 314 315
74 80 89 94 100 105 108 115 121 120 119 123 126 124 124 297 305 305 305 306 306 305 305 306 307 309 310 310 311 312 313 314 315 315 316 316 316 316 316 317 320 323 324
110 89 100 107 109 112 114 118 122 124 124 121 119 123 305 309 310 310 312 312 311 311 311 310 311 311 311 313 314 315 315 316 316 317 317 318 319 320 324 328 328 328 327